sat.trackr.live / text

‹ back to catalog

STARLINK-5974

NORAD 56344 · 2023-058AD

PAYLOAD ACTIVE UNKNOWN

§ Identity

Operator
Country
US
Launch date
2023-04-27
Launch site
AFWTR
Launch vehicle
Mass (kg)
RCS (m²)

Purposes: comms

External: N2YO · Heavens-Above · Gunter

§ Orbital elements

Epoch: 2026-05-25T00:07:28.966368Z

Period
95.64 min
Inclination
97.4496°
Eccentricity
0.0002124
Mean motion
15.05678121 rev/d
Perigee alt
548.0 km
Apogee alt
550.9 km
Semi-major
6,927.6 km
B*
-5.5101e-4
RAAN
146.1296°
Arg perigee
90.1399°
Mean anomaly
270.0072°
Rev number
16,968

§ Raw data

STARLINK-59741 56344U 23058AD  26145.00519637 -.00008006  00000+0 -55101-3 0  99992 56344  97.4496 146.1296 0002124  90.1399 270.0072 15.05678121169686

JSON: /api/v1/satellites/56344 · /tle

For live sub-satellite position, see the globe view (requires WebGL).

§ Visibility from observer

Set your observer location to see the next 7 days of passes ≥ 10°. The values pass through the URL so the page stays shareable.

No JS? Fill the form by hand. The geolocation button needs JavaScript.